Terminal Aerodrome Forecast
Issued by NWS

Home | Current Version | Previous Version | Text Only | Print | Product List | Glossary Off
Versions: 1 2 3 4 5 6 7 8 9 10 11 12 13 14 15

000
FTUS43 KICT 032320
TAFCNU
TAF
KCNU 032320Z 0400/0424 18012KT P6SM SKC
     FM040100 15007KT P6SM FEW200
     FM041500 18014KT P6SM FEW200=

USA.gov is the U.S. government's official web portal to all federal, state and local government web resources and services.